Home > Weather > Harare > Past weeks

Flag for Zimbabwe Past Weather in Harare, Zimbabwe — Yesterday and Last 2 Weeks

Now
64 °F

Passing clouds.


Feels Like: 64 °F
Forecast: 52 / 76 °F
Wind: 13 mph from East

Location: Harare Kutsaga Airport

Current Time: Jul 25, 2016 at 10:09:31 AM

Latest Report: Jul 25, 2016 at 9:00 AM


Visibility: N/A

Pressure: 30.27 "Hg (25.41 "Hg at 1490m altitude)

Humidity: 56%

Dew Point: 48 °F

Location of HarareLocation

Past Weather in Harare — Graph

°F

Harare Temperature Yesterday

Maximum temperature yesterday: 73 °F (at 2:00 PM)
Minimum temperature yesterday: 46 °F (at 6:00 AM)
Average temperature yesterday: 61 °F

High & Low Weather Summary for the Past Weeks

 TemperatureHumidityPressure
High75 °F (Jul 23, 3:00 PM)100% (Jul 11, 5:00 AM)30.51 "Hg (Jul 11, 5:00 AM)
Low39 °F (Jul 20, 6:00 AM)16% (Jul 23, 5:00 PM)30.15 "Hg (Jul 23, 3:00 PM)
Average56 °F60%30.31 "Hg
* Reported Jul 10 3:00 PM — Jul 25 9:00 AM, Harare, Weather by CustomWeather, © 2016

Note: Actual official high and low records may vary slightly from our data, if they occured in-between our weather recording intervals... More about our weather records

Advertising

Harare Weather History for the Previous 24 Hours

Scroll right to see more
 ConditionsComfort  
Time TempWeatherWind HumidityBarometerVisibility
9:00 AM
Mon, Jul 25
64 °FPassing clouds.13 mph56%30.27 "HgN/A
8:00 AM57 °FSunny.10 mph72%30.24 "Hg10 mi
7:00 AM54 °FSunny.10 mph77%30.24 "Hg10 mi
6:00 AM52 °FClear.9 mph82%30.21 "Hg10 mi
5:00 AM50 °FClear.10 mph88%30.18 "Hg10 mi
4:00 AM52 °FClear.9 mph77%30.21 "Hg10 mi
3:00 AM52 °FClear.9 mph72%30.21 "Hg10 mi
2:00 AM50 °FClear.8 mph71%30.21 "Hg10 mi
1:00 AM52 °FClear.8 mph62%30.21 "Hg10 mi
11:00 PM
Sun, Jul 24
52 °FClear.7 mph54%30.21 "Hg10 mi
10:00 PM57 °FClear.10 mph44%30.21 "Hg10 mi
9:00 PM57 °FClear.9 mph44%30.21 "Hg10 mi
8:00 PM55 °FClear.8 mph47%30.21 "Hg10 mi
7:00 PM57 °FClear.7 mph48%30.18 "Hg10 mi
6:00 PM63 °FClear.5 mph37%30.18 "Hg10 mi
5:00 PM72 °FSunny.9 mph25%30.15 "Hg10 mi
4:00 PM73 °FPassing clouds.12 mph25%30.15 "HgN/A
3:00 PM73 °FPassing clouds.9 mph27%30.15 "HgN/A
2:00 PM73 °FSunny.6 mph27%30.18 "Hg10 mi
1:00 PM72 °FPassing clouds.9 mph27%30.21 "HgN/A
12:00 PM70 °FSunny.9 mph31%30.21 "Hg10 mi
11:00 AM72 °FPassing clouds.13 mph31%30.24 "HgN/A
10:00 AM68 °FPassing clouds.15 mph38%30.27 "HgN/A
Weather by CustomWeather, © 2016

See weather overviewHow to use our weather pages